Nome, AK

8:25 PM AKDT on April 25, 2018 (GMT -0800)
Nome

Weather History for PAOM - October, 2014

Change the Weather History Date:

Tuesday, October 7, 2014

  Actual Average Record
Temperature  
Mean Temperature 31 °F 33 °F  
Max Temperature 37 °F 39 °F 50 °F (1947)
Min Temperature 24 °F 27 °F 14 °F (1960)
Degree Days  
Heating Degree Days 34 32  
Month to date heating degree days 207 215  
Since 1 July heating degree days 1493 1741  
Cooling Degree Days 0 0  
Month to date cooling degree days 0 0  
Year to date cooling degree days 3 3  
Moisture  
Dew Point 21 °F    
Average Humidity 64    
Maximum Humidity 78    
Minimum Humidity 39    
Precipitation  
Precipitation 0.00 in 0.06 in 0.59 in (1920)
Month to date precipitation T 0.44  
Year to date precipitation 11.60 13.34  
Snow  
Snow 0.00 in 0.10 in 2.30 in (1918)
Month to date snowfall T 0.5  
Since 1 July snowfall T 1.1  
Since 1 September snowfall 0.0 1.1  
Snow Depth 0.00 in    
Sea Level Pressure  
Sea Level Pressure 30.42 in    
Wind  
Wind Speed 5 mph (NE)    
Max Wind Speed 12 mph    
Max Gust Speed 14 mph    
Visibility 10 miles    
Events      
T = Trace of Precipitation, MM = Missing Value Source: NWS Daily Summary

Daily Weather History Graph

Daily Weather History Graph

Search for Another Location

Airport or City:

Astronomy

Oct. 07, 2014 Rise Set
Actual Time 9:29 AM AKDT 8:07 PM AKDT
Civil Twilight 8:41 AM AKDT 8:56 PM AKDT
Nautical Twilight 7:44 AM AKDT 9:52 PM AKDT
Astronomical Twilight 6:45 AM AKDT 10:50 PM AKDT
Moon 7:53 PM AKDT (10/7) 8:29 AM AKDT (10/7)
Length of Visible Light 12h 14m
Length of Day
10h 38m
Waxing Gibbous, 99% of the Moon is Illuminated
Oct 7
Waxing Gibbous
Oct 8
Full
Oct 15
Last Quarter
Oct 23
New
Oct 30
First Quarter

Hourly Weather History & Observations

Time (AKDT) Temp. Windchill Dew Point Humidity Pressure Visibility Wind Dir Wind Speed Gust Speed Precip Events Conditions
12:53 AM 33.1 °F 28.7 °F 21.9 °F 64% 30.42 in 10.0 mi NNW 4.6 mph - N/A   Overcast
1:53 AM 32.0 °F 28.7 °F 24.1 °F 73% 30.43 in 10.0 mi NNE 3.5 mph - N/A   Overcast
2:53 AM 32.0 °F 28.7 °F 23.0 °F 69% 30.43 in 10.0 mi NNE 3.5 mph - N/A   Overcast
3:53 AM 30.9 °F 27.5 °F 24.1 °F 76% 30.43 in 10.0 mi North 3.5 mph - N/A   Overcast
4:53 AM 30.9 °F - 23.0 °F 72% 30.43 in 10.0 mi Calm Calm - N/A   Overcast
5:53 AM 30.9 °F 26.2 °F 23.0 °F 72% 30.44 in 10.0 mi North 4.6 mph - N/A   Overcast
6:53 AM 30.9 °F - 21.9 °F 69% 30.44 in 10.0 mi Calm Calm - N/A   Overcast
7:53 AM 30.9 °F - 24.1 °F 76% 30.44 in 10.0 mi Calm Calm - N/A   Overcast
8:53 AM 32.0 °F 27.5 °F 23.0 °F 69% 30.45 in 10.0 mi East 4.6 mph - N/A   Overcast
9:53 AM 32.0 °F 26.4 °F 21.9 °F 66% 30.45 in 9.0 mi ENE 5.8 mph - N/A   Overcast
10:53 AM 32.0 °F 24.8 °F 21.0 °F 64% 30.45 in 10.0 mi East 8.1 mph - N/A   Overcast
11:53 AM 32.0 °F 25.6 °F 19.9 °F 61% 30.44 in 10.0 mi East 6.9 mph - N/A   Mostly Cloudy
12:53 PM 34.0 °F 26.0 °F 19.9 °F 56% 30.45 in 10.0 mi East 10.4 mph - N/A   Mostly Cloudy
1:53 PM 35.1 °F 27.4 °F 19.9 °F 54% 30.44 in 10.0 mi NE 10.4 mph - N/A   Scattered Clouds
2:53 PM 36.0 °F 30.3 °F 19.9 °F 52% 30.43 in 10.0 mi NNE 6.9 mph - N/A   Scattered Clouds
3:53 PM 35.1 °F 30.1 °F 19.0 °F 52% 30.42 in 10.0 mi ENE 5.8 mph - N/A   Mostly Cloudy
4:53 PM 36.0 °F 29.6 °F 19.0 °F 50% 30.41 in 10.0 mi East 8.1 mph - N/A   Mostly Cloudy
5:53 PM 35.1 °F 31.0 °F 21.0 °F 57% 30.40 in 10.0 mi NE 4.6 mph - N/A   Mostly Cloudy
6:53 PM 34.0 °F - 21.9 °F 61% 30.40 in 10.0 mi Calm Calm - N/A   Mostly Cloudy
7:53 PM 32.0 °F 23.0 °F 21.0 °F 64% 30.37 in 10.0 mi NE 11.5 mph - N/A   Scattered Clouds
8:53 PM 30.0 °F 24.1 °F 21.0 °F 69% 30.38 in 10.0 mi NE 5.8 mph - N/A   Scattered Clouds
9:53 PM 28.0 °F 20.0 °F 19.9 °F 72% 30.38 in 10.0 mi North 8.1 mph - N/A   Scattered Clouds
10:53 PM 27.0 °F 18.7 °F 19.9 °F 75% 30.36 in 10.0 mi NNW 8.1 mph - N/A   Scattered Clouds
11:53 PM 26.1 °F 19.4 °F 19.9 °F 78% 30.35 in 10.0 mi North 5.8 mph - N/A   Partly Cloudy